Location: Springfield
(37.2150°N, 93.2980°W)
Time: 15:16:08
(UTC-05:00)

Daily predictions for brighter satellites

Satellite Brightness Start Highest point End
(mag) Time Altitude Azimuth Time Altitude Azimuth Time Altitude Azimuth
Resurs 01 Rocket 4.2 21:00:58 10° SW 21:04:19 21° W 21:07:41 10° NW
Cosmos 1538 Rocket 4.1 21:04:36 10° NNW 21:09:57 70° ENE 21:15:17 10° SSE
Delta 2 Rocket 3.2 21:07:00 10° WSW 21:10:35 46° SSE 21:13:53 10° E
deb Chang Zheng 4 3.9 21:06:44 10° NNE 21:10:54 44° E 21:15:02 10° S
Meteor 1-21 Rocket 4.2 21:09:24 10° S 21:14:52 67° E 21:20:22 10° NNE
USA 186 3.0 21:17:25 10° SSW 21:19:33 29° W 21:21:45 10° NNW
USA 229 DEB 3.8 21:15:44 10° SSW 21:22:39 89° SE 21:29:42 10° NNE
USA 229 3.8 21:15:51 10° SSW 21:22:45 88° SE 21:29:48 10° NNE
Cosmos 2292 4.2 21:20:30 10° N 21:23:29 66° E 21:26:49 10° SSE
Cosmos 371 Rocket 3.6 21:21:57 10° NNW 21:26:44 66° WSW 21:31:28 10° S
Cosmos 1515 Rocket 3.6 21:22:34 10° N 21:27:00 70° E 21:31:22 10° SSE
ALOS 3.6 21:24:20 10° SSW 21:28:40 39° W 21:33:04 10° NNW
Cosmos 773 Rocket 4.2 21:24:53 10° N 21:30:02 60° ENE 21:34:56 11° SSE
Cosmos 2151 3.6 21:27:20 10° SSE 21:31:09 36° E 21:35:00 10° NNE
Nimbus 7 Rocket 4.4 21:26:06 10° NNE 21:31:54 61° ESE 21:37:40 10° S
Tiangong 1 1.7 21:36:59 10° SSW 21:39:47 32° SSE 21:42:35 10° E
Cosmos 2219 3.6 21:35:04 10° S 21:40:29 44° ESE 21:45:55 10° NE
Meteor 2-20 Rocket 4.5 21:34:29 10° S 21:40:34 66° E 21:46:40 10° NNE
DELTA 2 R/B(2) 3.1 21:39:33 10° W 21:41:08 71° NNW 21:43:17 10° ENE
Cosmos 1726 4.2 21:39:53 10° NE 21:41:47 13° ENE 21:43:05 12° E
NOSS 3-1 (A) 4.1 21:37:38 10° S 21:42:35 30° ESE 21:47:52 10° NE
Cosmos 1441 Rocket 4.2 21:40:13 10° SSW 21:43:53 48° WNW 21:47:31 10° N
Cosmos 2266 Rocket 4.0 21:38:26 10° S 21:44:44 77° E 21:50:57 10° N
SPOT 5 2.9 21:43:57 15° SSE 21:47:38 58° ENE 21:52:19 10° N
Cosmos 1151 Rocket 3.0 21:43:56 10° N 21:48:15 69° E 21:51:49 15° SSE
AVUM R/B 4.5 21:46:28 10° SW 21:48:34 31° WNW 21:50:50 10° N
Cosmos 2315 Rocket 4.4 21:43:13 10° N 21:49:09 46° ENE 21:53:45 17° SE
Cosmos 2237 Rocket 4.5 21:48:50 10° NE 21:50:09 11° NE 21:51:27 10° ENE
Cosmos 2322 3.8 21:45:41 10° NNW 21:51:22 64° ENE 21:55:36 18° SE
Cosmos 2058 3.5 21:49:04 17° SSE 21:51:39 36° E 21:55:25 10° NNE
Cosmos 1805 Rocket 4.2 21:50:01 17° SSE 21:53:00 38° E 21:57:07 10° NNE
Cosmos 2322 Rocket 3.3 21:48:26 10° NW 21:53:38 40° WSW 21:58:49 10° S
PSLV R/B 3.2 21:54:36 24° SSE 21:56:15 61° ENE 21:59:17 10° N
Envisat 3.1 21:56:35 12° S 22:01:19 77° WSW 22:06:25 10° NNW
Cosmos 1437 2.7 21:58:21 12° S 22:01:21 89° WNW 22:04:39 10° N
Cosmos 2360 Rocket 2.2 21:57:41 10° NNW 22:03:22 83° ENE 22:07:21 20° SSE
SL-16 R/B 3.5 21:59:19 10° NW 22:04:25 35° WSW 22:09:29 10° SSW
ATLAS 2AS CENTAUR R/B 4.1 22:03:26 18° ESE 22:05:12 20° ESE 22:10:26 10° ENE
ERS-1 Rocket 4.2 22:00:34 10° SSW 22:05:14 39° W 22:09:58 10° NNW
Cosmos 304 Rocket 3.7 22:02:10 10° NNW 22:07:01 84° ENE 22:10:03 23° SSE
Cosmos 1908 3.8 22:03:19 10° NNW 22:07:09 56° W 22:10:23 14° S
Meteor 1-4 Rocket 4.3 22:06:31 10° NNE 22:09:12 19° ENE 22:09:49 18° E
Aureole 3 4.4 22:02:21 10° S 22:09:20 84° E 22:14:56 10° N
H-2A R/B 3.1 22:05:22 10° S 22:09:41 44° W 22:14:01 10° NNW
MetOp-B 4.1 22:05:53 19° SSE 22:09:45 78° ENE 22:15:07 10° N
Cosmos 1707 Rocket 3.9 22:09:29 10° N 22:13:42 46° E 22:15:29 29° SE
SL-23 DEB 4.3 22:09:41 10° NW 22:14:27 53° NNE 22:16:05 27° E
Cosmos 2112 Rocket 4.0 22:09:55 10° NNW 22:15:11 80° ENE 22:18:17 25° SSE
Cosmos 1666 Rocket 3.8 22:13:17 27° SSE 22:15:21 49° E 22:19:37 10° NNE
Cosmos 1674 4.2 22:13:41 10° SSW 22:17:13 36° W 22:20:48 10° N
Cosmos 2298 Rocket 4.1 22:14:15 15° S 22:18:36 59° ESE 22:23:50 10° NNE
Cosmos 1626 4.4 22:20:38 12° ENE 22:20:38 12° ENE 22:21:30 10° ENE
Meteor 1-11 4.2 22:16:30 17° S 22:21:01 68° E 22:26:43 10° NNE
Cosmos 1937 Rocket 4.1 22:20:01 28° SE 22:21:52 37° E 22:26:37 10° NE
DELTA 2 R/B (1) 3.5 22:19:14 10° WNW 22:24:46 74° SSW 22:27:37 29° ESE
Cosmos 2227 Rocket 3.1 22:27:04 26° ESE 22:27:48 27° ESE 22:32:29 10° NE
NOSS 3-1 (C) 3.3 22:23:40 10° SSW 22:29:27 89° WNW 22:35:53 10° NNE
Cosmos 1300 2.6 22:27:02 10° N 22:30:53 76° E 22:31:58 45° SSE
YAOGAN 6 3.1 22:35:21 33° SSW 22:36:42 55° W 22:40:16 10° NNW
Terra 2.7 22:39:02 30° ESE 22:40:14 35° ENE 22:44:33 10° N
H-2A R/B 2.7 22:39:08 32° ESE 22:40:59 44° ENE 22:46:06 10° N
Cosmos 2333 Rocket 3.4 22:35:56 10° N 22:41:00 31° ENE 22:43:13 24° E
SL-16 R/B 4.4 22:40:28 10° NNE 22:42:59 13° NE 22:45:29 10° ENE
CZ-4B R/B 4.4 22:47:47 10° N 22:52:52 50° WNW 22:57:51 10° SW
COSMOS 2428 2.7 22:47:10 10° NNW 22:52:52 81° WSW 22:55:02 40° SSE
Delta 2 Rocket 3.3 22:49:26 10° W 22:52:08 48° WSW 22:52:08 48° WSW
SPOT 1/Viking Rocket 3.9 22:50:46 29° SSW 22:53:15 57° W 22:58:20 10° NNW
Cosmos 1455 3.5 22:50:14 10° NNE 22:53:11 28° ENE 22:53:11 28° ENE
Cosmos 2297 Rocket 3.0 22:55:00 32° ESE 22:55:00 32° ESE 22:59:55 10° NE
OAO 2 Rocket 3.5 22:51:13 10° WSW 22:56:24 54° SSE 22:57:14 48° SE
Cosmos 2242 Rocket 3.5 22:56:17 10° N 23:00:46 87° W 23:01:39 58° S
CZ-4 R/B 4.5 22:56:35 10° N 23:01:25 55° WNW 23:04:32 21° SW
ARGOS 3.5 22:59:48 32° SSW 23:02:09 59° W 23:07:29 10° NNW
Cosmos 1869 4.5 22:58:42 10° NNE 23:01:57 30° ENE 23:01:57 30° ENE
CZ-4C R/B 3.0 23:02:30 79° WNW 23:02:30 79° WNW 23:05:51 10° NNW
Cosmos 1898 Rocket 3.9 22:59:20 17° SSW 23:03:15 61° WNW 23:08:25 10° N
Cosmos 2219 Rocket 2.3 22:59:29 10° NNW 23:05:03 63° ENE 23:06:29 46° ESE
SAR-Lupe-2 4.2 23:06:09 46° NE 23:06:09 46° NE 23:09:10 10° N
DELTA 2 DEB (DPAF) 4.3 23:09:36 54° SSW 23:10:25 68° WSW 23:14:55 10° NNW
CARTOSAT-1 3.4 23:11:16 75° SE 23:11:35 81° ENE 23:15:55 10° N
Cosmos 1862 Rocket 3.8 23:08:03 10° N 23:12:14 53° ENE 23:12:14 53° ENE
Sich 1 4.3 23:11:22 23° SW 23:13:31 38° W 23:17:39 10° N
SL-08 RB Rocket 4.4 23:12:51 37° SW 23:13:56 45° W 23:18:16 10° NNW
SeaSat 1 4.3 23:12:26 17° ENE 23:13:59 19° NE 23:17:26 10° N
Cosmos 1633 Rocket 4.2 23:13:56 25° SW 23:15:54 38° W 23:20:00 10° N
Tiangong 1 3.1 23:13:19 10° W 23:14:49 24° W 23:14:49 24° W
Cosmos 1726 3.5 23:13:52 10° NNW 23:17:16 32° W 23:17:46 31° WSW
Cosmos 1980 3.8 23:16:42 10° NNW 23:22:19 63° ENE 23:23:22 53° ESE
Lacrosse 4 Rocket 3.6 23:20:59 10° N 23:23:55 17° NE 23:24:39 17° ENE
Cosmos 1703 4.3 23:25:25 36° WSW 23:26:00 39° W 23:29:40 10° N
Cosmos 1271 Rocket 3.6 23:23:17 10° NNW 23:26:53 42° W 23:26:53 42° W
DMSP B5D2-2 4.1 23:22:05 10° N 23:27:18 75° WNW 23:28:44 48° SSW
Cosmos 2237 Rocket 2.1 23:29:29 10° NNW 23:35:12 74° ENE 23:36:00 63° ESE
Cosmos 2082 3.7 23:34:33 45° SW 23:36:23 78° WNW 23:42:09 10° NNE
ERBS 4.4 23:45:24 25° NNE 23:45:24 25° NNE 23:47:04 10° NNE
COSMOS 2455 3.5 23:42:35 10° NNW 23:48:20 44° ENE 23:49:34 40° E
Cosmos 468 4.5 23:47:55 10° NNW 23:53:17 72° ENE 23:53:22 72° E
Cosmos 1626 3.7 23:55:19 31° WNW 23:55:19 31° WNW 23:58:19 10° NNW
